Location: Treviso
(45.6669°N, 12.2430°E)
Time: 02:36:31
(UTC+01:00)

ISS - Pass Details

Date: 21 February 2024
Orbit: 415 x 423 km, 51.6° (Epoch: 24 February)

Event Time Altitude Azimuth Distance (km) Brightness Sun altitude
Exits shadow 06:03:04 18° 268° (W) 1,096 -2.3 -11.4°
Maximum altitude 06:05:18 50° 339° (NNW) 548 -3.4 -11.0°
Drops below altitude 10° 06:08:37 10° 56° (ENE) 1,515 -0.1 -10.5°
Sets 06:10:46 0° 62° (ENE) 2,382 1.1 -10.1°
